Cloud_Cover
1 5 5 61 46 93 100 100 100 100 100 100 100 100 100 100 100 100 100 100 100 100 100 94 100 100 100 100 6 19 5 5 5 5 5 5 5 5 5 5 5 8 14 26 91 100 54 0 2 4 3 0 3 5
5 21 32 100 100 100 100 100 100 100 100 100 100 100 100 100 100 100 100 100 100 100 98 100 100 80 100 100 13 5 8 2 5 3 31 3 5 5 5 5 5 4 1 4 2 4 1 0 0 1 1 3 5 5
5 5 100 100 100 100 100 100 100 100 100 100 100 100 100 100 100 100 98 97 100 86 100 100 100 100 100 100 62 27 5 0 6 0 0 5 5 4 5 5 5 5 4 5 5 5 5 5 5 5 5 5 5 5
5 58 100 100 100 100 100 100 100 100 100 100 100 100 100 100 100 100 100 100 100 100 100 92 100 100 100 100 39 5 5 4 3 0 0 10 4 4 5 5 5 3 4 5 5 5 5 5 5 5 5 5 5 5
5 93 100 100 100 100 100 100 100 100 100 100 100 100 100 100 100 100 100 100 100 93 100 100 100 100 100 82 5 5 5 4 5 4 4 5 5 4 5 4 5 5 11 5 5 5 5 5 5 5 7 5 5 5
5 98 100 100 100 100 100 100 100 100 100 100 100 100 100 100 100 100 100 100 100 100 100 100 100 100 100 61 94 5 5 5 5 5 35 5 5 5 5 5 0 5 5 5 5 5 5 5 5 5 4 22 4 5
17 100 100 100 100 100 100 100 100 100 100 100 100 100 100 100 100 100 100 100 100 100 100 100 100 100 52 100 91 15 8 5 5 16 33 3 4 5 5 5 5 5 5 53 5 18 6 5 3 5 15 78 49 31
100 100 100 100 100 100 100 100 100 100 100 100 100 100 100 100 100 100 95 100 100 100 100 100 100 55 34 40 54 40 18 23 6 5 5 5 5 5 5 57 27 5 16 57 6 22 8 5 5 5 100 100 98 100
100 100 100 100 100 100 100 100 100 100 100 100 100 100 100 100 100 100 100 100 100 100 100 81 69 69 76 65 21 44 17 29 6 5 5 5 5 5 7 89 100 28 27 7 56 5 18 6 62 95 100 100 100 100
100 100 100 100 100 100 100 100 100 100 100 100 100 100 100 100 100 100 100 65 100 100 100 99 95 65 94 26 84 29 24 6 5 6 27 59 7 7 100 100 24 5 5 63 8 11 28 54 98 100 100 100 100 100
100 100 100 100 100 100 100 100 100 100 100 100 100 100 100 100 100 100 100 100 100 91 78 58 8 60 57 12 44 58 62 59 42 9 47 40 94 94 98 60 5 5 5 38 11 98 20 39 100 100 100 100 100 100
100 100 100 100 100 100 100 100 100 100 100 100 100 100 100 100 100 100 100 100 100 100 68 8 44 8 5 51 66 45 30 39 41 25 96 75 100 10 9 42 6 11 31 12 18 89 11 61 90 100 100 100 100 100
100 100 100 100 100 100 100 100 100 100 100 100 100 100 100 99 100 100 100 100 87 89 98 62 81 17 5 5 55 69 67 52 41 96 92 17 8 5 5 24 47 100 77 12 98 93 40 77 82 69 57 53 100 100
100 100 100 100 100 100 100 100 100 100 100 100 100 100 100 68 95 100 100 100 68 79 92 40 45 52 9 28 100 99 97 93 91 55 18 5 28 5 5 5 6 18 32 52 100 100 15 89 9 5 5 37 18 86
100 100 100 100 100 100 100 100 100 100 100 100 99 100 100 100 100 100 100 98 100 97 100 72 21 26 46 78 40 33 76 78 10 5 5 29 5 5 5 30 55 21 78 100 92 43 78 59 7 5 5 35 7 5
100 100 100 100 100 100 100 100 100 100 100 100 100 95 100 100 100 100 100 94 100 100 100 100 87 13 78 46 58 70 32 18 5 5 7 22 5 5 6 66 57 40 100 36 22 6 49 5 11 5 5 19 6 6
100 100 100 100 100 100 100 100 100 100 100 100 100 100 100 100 100 100 100 95 100 98 99 95 99 98 100 100 100 99 98 9 5 95 84 3 0 5 5 22 24 50 40 5 5 5 6 5 24 5 5 6 5 5
100 100 100 100 100 100 100 100 100 100 100 100 100 100 100 100 100 100 100 100 100 100 100 100 100 100 100 100 100 100 100 100 100 94 75 5 5 5 10 5 54 68 5 5 26 6 6 49 5 5 5 5 5 29
100 100 100 100 100 100 100 100 100 100 100 100 100 100 100 100 100 100 100 100 100 100 100 100 100 100 100 100 100 100 100 100 63 5 5 5 35 72 50 60 25 19 16 26 5 5 14 20 5 5 5 5 10 31
100 100 100 100 100 100 100 100 100 100 100 100 100 100 100 100 100 100 100 100 100 100 100 100 100 100 100 100 100 100 97 99 16 5 30 30 45 19 33 5 4 2 8 6 22 7 7 5 5 5 5 5 8 6
100 100 100 100 100 100 100 100 100 100 100 100 100 100 100 100 100 100 100 100 100 100 100 100 100 100 100 100 100 100 79 54 5 28 86 95 13 5 5 5 32 6 5 5 5 5 5 5 5 5 53 8 5 5
100 100 100 100 100 100 100 100 100 100 100 100 100 100 100 100 100 100 100 100 100 100 100 100 100 100 100 100 100 100 99 74 73 95 85 5 6 5 5 5 66 55 68 30 43 7 5 5 5 5 5 5 7 15
100 100 100 100 100 100 100 100 100 100 100 100 100 100 100 100 100 100 100 100 100 100 100 100 100 100 100 100 100 100 100 99 93 9 7 10 5 15 61 28 46 82 71 7 42 56 32 8 5 5 7 35 65 74
100 100 100 100 100 100 100 100 100 100 100 100 100 100 100 100 100 100 100 100 100 100 100 100 100 100 100 100 100 100 92 61 17 17 34 29 9 6 5 7 8 33 68 25 80 74 59 10 5 22 42 57 50 14
100 100 100 100 100 100 100 100 100 100 100 100 100 100 100 100 100 100 100 100 100 100 100 100 100 100 100 100 100 100 100 42 9 5 15 54 36 44 12 5 5 18 72 58 34 6 5 5 5 5 5 22 5 5
100 100 100 100 100 100 100 100 100 100 100 100 100 100 100 100 100 100 100 100 100 100 100 100 100 100 100 100 100 100 83 55 5 5 5 62 57 11 51 70 64 21 65 79 94 76 41 51 53 11 7 15 17 5
100 100 100 100 100 100 100 100 100 100 100 100 100 100 100 100 100 100 100 100 100 100 100 100 100 100 100 100 92 71 64 62 11 5 35 62 68 67 61 76 95 37 6 63 65 74 100 98 93 76 76 56 59 46
100 100 100 100 100 100 100 100 100 100 100 100 100 100 100 100 100 100 100 100 100 100 100 100 100 100 100 100 66 15 11 45 7 53 48 48 75 70 34 19 53 54 25 30 82 99 100 100 100 100 100 99 76 67
100 100 100 100 100 100 100 100 100 100 100 100 100 100 100 100 100 100 100 100 100 100 100 100 100 97 100 90 40 69 62 6 5 5 5 5 5 5 24 36 46 15 47 54 29 86 100 100 100 100 100 99 96 100
100 100 100 100 100 100 100 100 100 100 100 100 100 100 100 100 100 100 100 100 100 100 100 95 98 88 93 39 7 5 29 69 29 5 5 5 5 6 46 39 18 5 46 92 96 80 71 71 70 78 74 54 59 76
100 100 100 100 100 100 100 100 100 100 100 100 100 100 100 100 100 100 100 100 100 100 100 100 81 61 9 5 5 5 5 16 58 50 82 93 91 93 46 6 5 41 90 100 100 100 100 97 93 94 93 83 61 82
100 100 100 100 100 100 100 100 100 100 100 100 100 100 100 100 100 100 100 100 100 100 100 100 52 19 5 5 19 26 37 59 60 50 74 93 78 71 66 76 83 99 98 94 93 97 97 100 100 100 99 93 61 37
100 100 100 100 100 100 100 100 100 100 100 100 100 100 100 100 100 100 100 100 100 98 83 64 34 15 5 10 31 71 50 42 71 82 99 100 100 100 100 93 98 89 98 100 96 91 95 82 85 63 59 66 66 65